Location: Dioulouffet
(43.5650°N, 5.4249°E)
Time: 22:49:38
(UTC+00:00)

Daily predictions for brighter satellites

Satellite Brightness Start Highest point End
(mag) Time Altitude Azimuth Time Altitude Azimuth Time Altitude Azimuth
USA 276 3.5 16:32:26 10° WNW 16:35:09 26° N 16:37:53 10° NE
Okean O Rocket 3.3 16:33:44 10° E 16:35:58 14° ENE 16:38:10 10° NNE
Cosmos 1464 Rocket 4.4 16:32:45 10° SSE 16:38:41 44° E 16:44:41 10° NNE
COSMO-SKYMED 1 4.3 16:36:17 10° ENE 16:38:43 15° E 16:41:08 10° SE
Meteor PRIRODA 3.6 16:37:08 10° SSE 16:40:47 88° WSW 16:44:28 10° NNW
Aureole 3 4.3 16:36:41 10° SSE 16:41:31 55° E 16:47:39 10° NNE
Cosmos 1174 4.5 16:37:37 10° NW 16:42:01 81° WSW 16:47:34 10° SSE
ERBS 3.5 16:41:54 10° S 16:44:35 25° SE 16:47:12 10° ENE
Cosmos 2221 3.1 16:44:23 10° SSE 16:48:14 34° E 16:52:07 10° NNE
NOSS 2-1 (E) 2.8 16:45:33 10° SSW 16:48:52 68° SE 16:52:08 10° NE
ISS -2.5 16:48:41 10° W 16:51:48 33° NNW 16:54:49 11° NE
USA 267 4.1 16:48:35 10° NE 16:54:35 40° NNW 17:00:35 10° W
CZ-2C R/B 3.6 16:50:31 10° NE 16:54:46 25° E 16:58:58 10° SSE
Cosmos 1340 Rocket 4.0 16:53:36 10° NNE 16:56:47 22° ENE 16:59:57 10° ESE
AQUARIUS 4.1 16:53:04 10° SSE 16:57:30 63° ENE 17:01:57 10° N
Cosmos 1271 Rocket 2.7 16:55:46 10° S 16:59:38 89° WNW 17:03:36 10° N
USA 306 3.0 16:56:01 10° WSW 17:00:16 74° NW 17:04:01 13° NE
Lacrosse 5 rocket 3.4 16:58:40 10° NW 17:00:52 15° NNW 17:03:09 10° NNE
Nadezhda 4 Rocket 4.2 16:55:20 10° N 17:01:25 47° ENE 17:07:28 10° SSE
Cosmos 1891 Rocket 4.5 16:57:31 10° S 17:03:38 79° E 17:09:56 10° N
SMAP 3.0 16:59:53 10° SSE 17:04:32 88° ENE 17:09:13 10° NNW
ATLAS 2AS CENTAUR R/B 4.3 17:00:26 10° W 17:07:22 33° NW 17:14:06 10° NNE
CZ-4B DEB 4.2 17:02:19 10° SSE 17:07:48 72° ENE 17:13:19 10° N
Cosmos 1408 Rocket 3.6 17:05:02 10° N 17:09:16 51° ENE 17:13:30 10° SSE
Meteor 2-2 Rocket 4.4 17:03:48 10° S 17:09:48 78° E 17:15:51 10° NNE
Cosmos 1743 Rocket 4.3 17:07:20 10° NNE 17:11:08 29° ENE 17:14:54 10° SE
H-2A R/B 2.2 17:07:08 10° SSE 17:12:16 53° ENE 17:17:17 10° N
Cosmos 1980 Rocket 4.0 17:10:17 10° NNE 17:12:25 12° NE 17:12:43 12° NE
Cosmos 1697 Rocket 4.0 17:08:24 10° N 17:12:27 20° NE 17:14:22 17° ENE
Cosmos 1513 Rocket 4.5 17:08:29 10° S 17:14:33 90° W 17:20:44 10° N
PAYLOAD B 4.2 17:09:30 10° SSE 17:15:02 65° ENE 17:20:36 10° N
USA 307 3.2 17:11:07 10° WSW 17:15:22 64° NNW 17:18:33 17° NE
Cosmos 44 4.1 17:14:25 10° NNW 17:18:40 29° NE 17:20:56 20° E
ATLAS CENTAUR R/B 2.3 17:15:50 10° SW 17:19:44 46° NW 17:23:56 10° NNE
Cosmos 2034 Rocket 3.9 17:13:55 10° S 17:20:00 64° E 17:26:05 10° NNE
Cosmos 1777 Rocket 4.2 17:15:15 10° NNW 17:20:32 75° WSW 17:25:48 10° SSE
Cosmos 1939 Rocket 3.8 17:18:00 10° S 17:22:02 53° W 17:26:06 10° NNW
Lacrosse 5 1.9 17:18:47 10° NW 17:23:55 82° SW 17:29:00 10° SE
SKYMED 2 3.8 17:22:55 10° NNE 17:27:07 45° E 17:31:16 10° S
Cosmos 1898 Rocket 4.3 17:24:57 10° N 17:29:28 28° ENE 17:31:16 23° E
NOSS 2-1 (C) 4.2 17:26:48 10° WSW 17:29:50 34° NW 17:32:11 15° NNE
NOSS 3-1 (C) 4.1 17:23:13 10° NNW 17:30:32 58° NE 17:39:06 10° SE
MOS 1-B Rocket 3.9 17:26:26 10° NNE 17:32:07 67° ESE 17:38:21 10° S
Cosmos 1656 3.8 17:26:48 10° NNW 17:32:07 47° ENE 17:37:29 10° SE
CZ-2D R/B 3.3 17:29:44 10° S 17:33:36 84° W 17:37:27 10° NNW
GEOS 3 Rocket 3.6 17:28:41 10° SE 17:33:53 67° NE 17:39:04 10° NNW
PSLV R/B 4.1 17:31:53 10° S 17:35:31 64° WSW 17:39:11 10° NNW
MOS 1-B 4.3 17:29:49 10° SSE 17:35:35 88° ENE 17:41:25 10° NNW
Meteor 1-20 Rocket 4.3 17:31:21 10° N 17:37:02 55° ENE 17:42:45 10° SSE
USA 308 3.6 17:33:25 10° WSW 17:37:32 47° NNW 17:39:45 24° NNE
SL-08 RB Rocket 4.2 17:34:20 10° SE 17:38:35 36° ENE 17:42:51 10° N
Cosmos 468 Rocket 4.3 17:35:52 10° S 17:40:37 41° ESE 17:42:42 28° NE
Cosmos 1500 Rocket 3.5 17:38:22 10° N 17:42:50 68° E 17:47:14 10° SSE
SJ 16-02 2.2 17:41:00 10° NNW 17:45:16 52° WSW 17:49:30 10° S
BREEZE-M DEB (TANK) 4.5 17:38:52 10° WNW 17:47:25 57° SW 17:49:49 18° SE
Cosmos 1634 Rocket 4.1 17:42:25 10° SSE 17:48:27 50° E 17:54:32 10° NNE
Cosmos 1842 Rocket 4.3 17:47:03 10° SSW 17:51:23 54° WNW 17:55:47 10° N
CZ-4B R/B 3.2 17:47:20 10° SSE 17:52:51 88° WSW 17:58:18 10° NNW
Cosmos 1805 Rocket 3.6 17:48:54 10° N 17:53:09 50° ENE 17:57:20 10° SSE
CZ-4C R/B 4.0 17:49:39 10° NNW 17:55:03 24° NNE 17:56:09 23° NE
CZ-4 R/B 3.8 18:00:41 11° N 18:00:41 11° N 18:00:52 10° N
Cosmos 1833 Rocket 2.9 17:52:08 10° S 17:57:28 46° ESE 17:58:47 39° ENE
ATLAS 5 CENTAUR R/B 3.8 17:52:14 10° NW 17:58:18 22° N 17:58:54 21° NNE
YAOGAN 3 4.5 17:54:41 10° SSE 17:59:03 86° ENE 18:03:25 10° NNW
Cosmos 540 Rocket 4.0 17:58:30 10° S 18:02:28 36° ESE 18:02:28 36° ESE
USA 305 4.1 18:04:57 10° W 18:08:43 30° NNW 18:09:32 28° N
Meteor 1-25 Rocket 4.1 18:03:18 10° N 18:08:52 90° W 18:14:27 10° S
Cosmos 2026 Rocket 3.8 18:03:29 10° N 18:09:42 76° E 18:15:47 10° SSE
Cosmos 2195 Rocket 4.4 18:04:50 10° N 18:10:59 90° W 18:17:10 10° S
Okean O Rocket 1.9 18:07:19 10° S 18:11:44 69° WSW 18:16:11 10° NNW
USA 276 4.2 18:09:01 10° NW 18:10:26 20° NNW 18:10:26 20° NNW
ARGOS 3.3 18:07:24 10° S 18:12:49 77° WSW 18:18:16 10° NNW
Spot 2 4.3 18:11:28 19° SSE 18:15:04 67° ENE 18:20:12 10° N
COSMO-SKYMED 1 3.2 18:11:30 13° N 18:15:12 54° WNW 18:19:25 10° SSW
ATLAS CENTAUR R/B 2.7 18:07:58 10° SW 18:18:04 89° NW 18:19:16 55° NE
ERBS 3.9 18:17:29 10° W 18:19:49 29° WNW 18:19:49 29° WNW
Cosmos 1782 3.9 18:16:35 10° S 18:18:52 33° S 18:18:52 33° S
Cosmos 1937 Rocket 4.0 18:17:04 10° NNW 18:21:06 44° NNE 18:21:06 44° NNE
Meteor 2-16 Rocket 4.4 18:19:41 10° N 18:25:15 56° ENE 18:25:15 56° ENE
Cosmos 1763 Rocket 3.5 18:22:16 10° SSW 18:27:18 74° WNW 18:28:44 47° N
ISS -1.1 18:26:42 10° NW 18:27:48 15° NW 18:27:48 15° NW
Cosmos 1933 4.3 18:28:42 10° SSW 18:32:37 46° WNW 18:33:24 40° NW
CZ-2C R/B 3.6 18:30:18 10° N 18:35:14 43° WNW 18:40:06 10° SW
USA 267 4.5 18:35:05 25° NNE 18:36:33 27° N 18:41:51 10° WNW
IRAS Rocket 4.2 18:38:23 65° SSE 18:38:23 65° SSE 18:43:09 10° S
USA 229 DEB 3.8 18:46:05 10° NW 18:53:30 89° NE 18:54:57 63° SE
USA 229 3.8 18:46:11 10° NW 18:53:36 89° ENE 18:54:58 64° SE
Cosmos 1697 Rocket 3.0 18:51:25 10° NNW 18:56:10 62° NW 18:56:10 62° NW
COSMOS 2455 3.8 18:51:09 10° SSW 18:54:37 36° S 18:54:37 36° S
Cosmos 1980 Rocket 3.7 18:52:05 10° NNW 18:54:30 26° N 18:54:30 26° N
COSMOS 2406 3.4 18:52:14 10° SSW 18:57:17 67° WSW 18:57:17 67° WSW
ATLAS CENTAUR R/B 4.3 18:59:22 10° NNW 18:59:48 10° NNW 19:00:03 10° NNW
Cosmos 44 4.5 18:55:35 10° NW 18:59:26 37° W 18:59:26 37° W
Cosmos 2082 Rocket 3.7 18:55:57 10° SSW 18:58:13 25° S 18:58:13 25° S
NOSS 3-1 (A) 4.3 19:09:11 10° NW 19:16:49 67° WSW 19:19:13 49° S
Cosmos 1833 Rocket 4.5 19:36:43 10° WSW 19:40:32 27° WNW 19:40:32 27° WNW
CZ-4C R/B 4.0 19:37:36 10° NNW 19:41:21 35° NNW 19:41:21 35° NNW
